Snowfall_Accumulation
0.0 0.0 0.0 0.0 0.0 0.0 0.0 0.0 11.6 0.0 0.0 5.4 10.4 11.0 4.6 0.4 0.2 0.0 0.7 0.7 0.8 1.5 1.2 2.1 0.1 0.4 0.4 1.3 2.5 1.9 1.8 5.7 3.8 2.3 2.6 2.1 4.0 3.2 4.2 8.3 7.7 7.5 5.6 4.7
0.0 0.0 0.0 0.0 0.0 0.0 0.0 4.4 2.7 0.0 0.0 10.5 6.7 1.1 0.0 2.1 1.9 0.6 2.3 1.8 2.4 1.8 1.1 5.0 0.0 2.6 1.9 0.4 1.9 3.4 2.7 5.0 3.9 4.2 2.4 2.2 5.3 4.5 3.7 4.8 8.6 8.1 6.3 2.3
0.0 0.0 0.0 0.0 0.0 0.0 0.0 4.5 10.6 0.0 0.0 0.0 3.5 4.3 1.9 1.0 1.1 2.1 2.1 2.4 0.1 2.5 0.8 0.1 3.9 2.9 3.4 2.2 2.1 1.5 6.4 6.3 4.4 4.2 8.7 10.1 7.7 3.8 2.8 5.0 10.8 4.8 2.8 1.1
0.0 0.0 0.0 0.0 0.0 0.0 0.0 5.5 6.8 0.0 9.1 1.9 3.6 4.9 4.4 2.4 3.0 0.4 1.8 2.3 1.8 3.7 5.0 1.9 1.8 0.7 0.4 0.0 2.0 2.4 4.0 4.7 1.0 2.1 2.9 7.0 5.6 3.9 4.0 6.1 3.6 5.7 3.5 1.4
0.0 0.0 0.0 0.0 0.0 0.0 0.0 5.7 5.0 3.5 3.6 0.9 1.9 2.5 2.6 1.4 1.6 3.0 2.4 2.1 1.4 1.4 3.7 3.6 3.3 2.1 0.3 2.0 2.0 4.2 3.8 5.7 6.2 6.7 3.5 3.8 3.9 2.0 2.8 2.6 2.7 2.4 3.1 2.8
0.0 0.0 0.0 0.0 0.0 0.0 0.0 2.9 1.6 13.6 3.3 0.7 1.6 2.0 1.3 2.4 2.0 0.6 0.5 1.2 2.0 1.1 0.5 0.0 0.0 0.3 1.5 2.9 3.0 2.0 7.3 10.0 12.5 9.9 2.6 4.6 4.0 4.8 4.4 5.3 6.3 5.5 4.6 4.0
0.0 0.0 0.0 0.0 0.0 0.0 0.0 0.0 4.2 20.0 8.5 1.3 0.6 0.1 0.5 1.1 0.4 2.7 0.0 0.2 3.4 0.4 0.1 0.3 0.3 0.3 2.1 2.2 2.1 1.3 4.7 8.9 13.5 15.9 11.9 14.9 6.6 2.5 2.6 4.6 6.0 6.6 4.8 2.6
0.0 0.0 0.0 0.0 0.0 0.0 0.0 0.0 3.1 21.6 15.1 0.8 0.5 0.5 0.8 0.2 0.0 0.8 0.9 0.0 0.1 1.5 2.1 3.2 3.8 2.7 1.9 1.1 1.0 1.9 2.7 6.2 11.5 13.3 10.5 8.4 5.2 4.9 6.4 6.2 6.4 5.1 3.8 1.5
0.0 0.0 0.0 0.0 0.0 0.0 0.0 0.0 0.0 17.1 23.9 4.0 0.3 0.5 0.5 2.7 2.7 1.9 0.3 0.0 0.0 2.5 4.6 5.7 7.1 2.9 0.9 1.5 0.7 0.2 0.9 3.3 11.2 12.0 11.1 6.9 5.6 6.5 8.0 4.4 5.2 3.1 2.7 1.8
0.0 0.0 0.0 0.0 0.0 0.0 0.0 0.0 0.0 3.6 31.6 0.7 0.0 2.0 3.2 2.6 2.8 5.8 1.5 1.0 1.8 1.9 4.7 7.4 5.5 2.8 1.9 1.1 2.6 1.7 1.4 3.8 9.4 8.3 11.6 5.5 4.7 4.2 5.5 7.1 5.8 3.6 4.0 3.0
0.0 0.0 0.0 0.0 0.0 0.0 0.0 0.0 0.0 0.0 29.6 1.8 0.0 0.0 0.6 3.7 5.3 9.6 4.5 6.1 2.6 4.5 7.2 7.1 1.5 4.2 1.5 2.2 2.2 4.9 4.3 5.2 5.1 6.8 12.5 6.5 2.1 1.7 5.5 6.8 3.5 3.5 3.4 3.9
0.0 0.0 0.0 0.0 0.0 0.0 0.0 0.0 0.0 0.0 8.0 3.7 0.0 0.0 0.0 0.0 0.2 4.6 11.5 5.7 2.3 6.8 8.2 5.0 7.8 6.4 4.3 2.4 3.5 1.3 5.8 6.6 7.9 6.2 7.6 6.6 5.0 6.4 6.2 3.3 2.0 1.6 1.8 2.3
0.0 0.0 0.0 0.0 0.0 0.0 0.0 0.0 0.0 0.0 17.4 6.7 2.4 1.1 0.1 0.0 0.6 0.9 13.9 8.2 4.3 5.7 4.4 11.5 10.8 9.3 4.7 3.9 2.0 0.8 3.1 2.3 3.3 2.8 1.9 0.6 3.9 2.2 1.5 1.4 2.4 1.8 1.0 1.0
0.0 0.0 0.0 0.0 0.0 0.0 0.0 0.0 0.0 0.0 22.3 31.1 5.1 0.2 0.1 0.0 0.2 2.5 4.7 5.9 6.9 6.8 6.8 16.0 14.9 9.8 2.9 3.0 1.7 1.1 1.2 0.7 1.6 1.6 0.4 0.6 1.4 0.7 1.0 0.9 0.7 0.7 0.3 1.0
0.0 0.0 0.0 0.0 0.0 0.0 0.0 0.0 0.0 0.0 6.2 33.6 12.0 2.7 0.9 0.0 0.1 1.6 3.3 4.8 5.6 6.2 10.9 15.3 12.1 5.2 6.4 6.1 3.8 2.3 1.4 1.9 2.4 1.6 0.8 1.5 0.2 0.3 0.3 0.2 0.3 0.1 0.3 1.4
0.0 0.0 0.0 0.0 0.0 0.0 0.0 10.5 0.0 0.0 0.8 24.8 27.0 3.8 0.5 0.0 0.3 1.1 2.0 2.7 3.5 7.4 11.5 12.9 6.1 4.0 7.4 11.1 4.7 1.3 0.8 0.9 2.3 1.8 0.6 0.8 0.7 0.1 0.0 1.1 0.5 0.3 1.0 1.7
0.0 0.0 0.0 0.0 0.0 0.0 1.9 14.1 2.4 0.0 0.0 34.1 42.1 22.0 3.6 1.3 1.6 3.1 3.9 3.7 4.1 10.6 18.3 13.7 8.6 7.2 11.0 14.9 6.3 1.0 0.8 1.2 1.4 0.7 0.4 1.4 0.4 0.6 1.3 0.8 0.3 1.5 1.4 1.2
0.0 0.0 0.0 0.0 0.0 3.2 3.8 3.3 4.1 2.7 10.2 28.8 63.9 34.2 12.9 2.3 3.5 7.1 7.6 8.4 7.8 20.8 15.2 12.0 6.4 6.9 13.3 15.6 2.1 1.1 1.0 1.2 2.2 2.1 1.8 3.8 3.0 2.6 2.9 0.7 1.8 1.5 1.7 1.7
0.0 0.0 0.0 5.0 5.0 3.8 3.0 4.1 4.4 3.8 6.4 66.1 45.0 24.4 14.1 6.2 3.7 5.8 9.9 12.3 24.7 18.5 20.0 9.5 7.0 14.9 19.0 9.4 3.5 1.6 2.8 4.7 4.1 3.9 3.1 2.4 2.3 3.0 2.9 2.1 1.7 2.7 4.5 3.4
0.0 7.5 11.2 25.7 8.6 2.7 3.3 4.4 19.3 35.1 47.6 44.7 29.1 14.9 11.5 8.1 10.6 12.0 16.6 23.1 27.6 31.1 18.3 11.9 19.6 13.6 8.1 5.9 7.0 6.6 6.1 5.9 6.0 9.2 7.2 4.2 5.7 5.0 5.4 5.9 6.1 6.0 6.3 6.3
10.4 29.2 29.5 10.4 4.9 5.3 14.6 48.4 48.0 38.8 33.5 18.0 13.4 8.6 10.3 8.2 17.5 18.8 21.4 28.9 27.1 27.8 16.3 13.8 16.1 13.3 7.4 5.8 7.7 7.7 7.5 7.5 7.4 7.7 8.4 10.0 12.0 11.8 9.0 7.1 9.8 8.0 8.5 8.9
13.1 11.5 16.6 16.2 38.7 48.0 49.0 42.3 22.0 15.2 12.2 13.3 9.5 6.7 8.4 13.5 14.4 23.2 27.2 24.7 22.8 19.5 10.0 16.2 12.9 8.5 7.3 9.1 8.8 8.8 8.7 8.4 7.9 7.9 9.7 8.3 8.5 9.1 9.0 9.6 9.6 8.8 8.5 7.7
17.1 38.9 48.7 42.1 41.8 44.8 32.6 17.6 12.5 11.9 9.8 11.0 9.6 10.8 11.8 15.3 21.2 29.2 25.3 24.1 17.2 11.3 13.4 10.5 9.0 7.0 6.9 8.4 10.1 10.2 10.3 8.4 8.8 9.1 7.0 7.2 7.3 6.9 6.7 6.6 5.5 5.6 5.4 6.2
39.7 46.6 40.4 26.5 22.9 12.8 10.9 8.5 8.6 9.4 11.6 13.0 13.6 14.7 16.8 15.2 22.2 21.3 22.6 15.7 10.3 16.9 12.0 9.4 8.3 8.4 7.7 7.2 7.9 8.0 8.2 8.5 8.3 10.7 10.6 8.4 7.0 6.1 5.4 5.9 6.6 5.8 5.2 5.8
54.3 40.0 26.1 15.2 9.4 7.2 9.2 9.4 9.2 11.5 14.6 17.9 18.7 18.8 17.8 20.2 23.6 16.9 11.0 15.4 14.0 12.0 10.3 9.7 9.9 9.8 9.4 8.8 8.0 7.2 6.7 7.4 7.6 7.6 8.1 9.1 6.7 4.9 4.2 5.5 5.6 5.4 5.4 4.4
44.8 31.4 13.9 7.2 6.3 7.3 6.5 8.3 9.2 10.4 12.3 13.9 18.1 17.7 18.4 16.9 15.0 14.0 10.7 10.8 10.1 11.1 11.6 11.6 10.5 9.7 9.1 9.5 9.1 8.5 8.5 8.6 8.8 8.6 9.4 8.5 8.6 9.2 9.0 6.9 6.0 5.8 6.2 4.9
38.4 14.7 8.6 8.7 6.8 6.7 6.8 6.6 6.7 6.9 8.7 10.3 12.1 16.3 11.3 12.1 12.7 9.6 8.0 10.2 11.5 10.7 8.8 8.2 8.6 8.1 8.0 7.6 6.8 6.5 5.9 5.7 5.9 7.0 8.0 9.3 10.0 9.4 7.7 7.8 9.7 8.9 8.6 7.9